FW0435 Weather Reports


time (UTC)temp
C
wind
direction
speed
KPH
gust
KPH
rain 1hr
cm
rain 24hr
cm
rain mn
cm
humidity
%
barometer
mb
20260509224510 21 223 0.0 3.2 0.00 0.00 0.00 62 1009.3
20260509223011 21 260 0.0 6.4 0.00 0.00 0.00 59 1009.4
20260509221509 21 253 0.0 6.4 0.00 0.00 0.00 59 1009.4
20260509220009 21 258 0.0 4.8 0.00 0.00 0.00 59 1009.4
20260509214507 22 258 0.0 1.6 0.00 0.00 0.00 59 1009.3
20260509213007 21 271 0.0 1.6 0.00 0.00 0.00 60 1009.3
20260509211506 21 70 0.0 3.2 0.00 0.00 0.00 59 1009.2
20260509210015 21 259 0.0 3.2 0.00 0.00 0.00 59 1009.2
20260509204505 22 264 0.0 4.8 0.00 0.00 0.00 58 1009.3
20260509203004 21 229 1.6 8.0 0.00 0.00 0.00 58 1009.3
20260509201504 21 212 1.6 4.8 0.00 0.00 0.00 59 1009.3
20260509200003 21 108 0.0 4.8 0.00 0.00 0.00 59 1009.5
20260509194501 21 145 0.0 12.9 0.00 0.00 0.00 60 1009.6
20260509193117 22 84 0.0 4.8 0.00 0.00 0.00 59 1009.6
20260509191559 22 305 3.2 11.3 0.00 0.00 0.00 59 1009.6
20260509190059 22 163 1.6 6.4 0.00 0.00 0.00 60 1010.1
20260509184607 21 176 3.2 9.7 0.00 0.00 0.00 56 1010.2
20260509183052 21 349 3.2 9.7 0.00 0.00 0.00 55 1010.3
20260509181549 20 255 0.0 4.8 0.00 0.00 0.00 58 1010.9
20260509180048 20 156 0.0 8.0 0.00 0.00 0.00 57 1011.0
20260509174545 20 193 1.6 6.4 0.00 0.00 0.00 59 1011.2
20260509173049 19 32 0.0 4.8 0.00 0.00 0.00 58 1011.6
20260509171553 19 136 1.6 4.8 0.00 0.00 0.00 62 1011.8
20260509170043 19 146 0.0 12.9 0.00 0.00 0.00 62 1012.1
20260509164542 20 219 3.2 8.0 0.00 0.00 0.00 60 1012.0
20260509163041 20 120 3.2 8.0 0.00 0.00 0.00 58 1011.8
20260509161539 20 322 0.0 9.7 0.00 0.00 0.00 58 1011.6
20260509160037 19 27 0.0 4.8 0.00 0.00 0.00 60 1011.8
20260509154537 19 103 0.0 4.8 0.00 0.00 0.00 62 1012.0
20260509153037 19 47 0.0 4.8 0.00 0.00 0.00 58 1012.0
20260509151530 18 149 0.0 6.4 0.00 0.00 0.00 61 1012.0
20260509150028 18 321 1.6 4.8 0.00 0.00 0.00 66 1012.3
20260509144528 17 139 0.0 1.6 0.00 0.00 0.00 64 1012.3
20260509143026 17 256 0.0 4.8 0.00 0.00 0.00 64 1012.5
20260509141524 16 276 0.0 3.2 0.00 0.00 0.00 65 1012.6
20260509140018 15 265 0.0 1.6 0.00 0.00 0.00 67 1012.6
20260509134514 15 199 0.0 1.6 0.00 0.00 0.00 69 1012.3
20260509133014 15 163 0.0 3.2 0.00 0.00 0.00 70 1012.3
20260509131519 15 165 0.0 3.2 0.00 0.00 0.00 70 1012.4
20260509130011 15 174 0.0 3.2 0.00 0.00 0.00 71 1012.4
20260509124511 13 107 0.0 4.8 0.00 0.00 0.00 74 1012.6
20260509123004 13 112 0.0 3.2 0.00 0.00 0.00 75 1012.5
20260509121508 13 170 3.2 4.8 0.00 0.00 0.00 75 1012.4
20260509120003 13 341 0.0 0.0 0.00 0.00 0.00 78 1012.6
20260509114502 13 341 0.0 1.6 0.00 0.00 0.00 75 1012.4
20260509113059 12 341 0.0 1.6 0.00 0.00 0.00 77 1012.3
20260509111557 12 341 0.0 1.6 0.00 0.00 0.00 75 1012.1
20260509110056 12 341 0.0 1.6 0.00 0.00 0.00 73 1011.9
20260509104555 12 186 0.0 3.2 0.00 0.00 0.00 70 1011.9
20260509103054 12 268 0.0 4.8 0.00 0.00 0.00 69 1011.8
20260509101555 12 220 0.0 8.0 0.00 0.00 0.00 68 1011.7
20260509100058 12 255 1.6 8.0 0.00 0.00 0.00 69 1011.8
20260509094553 12 252 0.0 4.8 0.00 0.00 0.00 68 1011.7
20260509093050 12 159 0.0 3.2 0.00 0.00 0.00 70 1011.7
20260509091548 12 288 0.0 1.6 0.00 0.00 0.00 72 1011.8
20260509090048 12 216 0.0 4.8 0.00 0.00 0.00 73 1011.8
20260509084552 11 155 0.0 0.0 0.00 0.00 0.00 76 1011.9
20260509083044 12 155 0.0 0.0 0.00 0.00 0.00 77 1012.0
20260509081547 12 260 0.0 6.4 0.00 0.00 0.00 73 1012.0
20260509080043 12 195 0.0 0.0 0.00 0.00 0.00 74 1012.1
20260509074545 12 195 0.0 0.0 0.00 0.00 0.00 74 1012.1
20260509073041 12 199 0.0 0.0 0.00 0.00 0.00 73 1012.1
20260509071544 12 257 0.0 0.0 0.00 0.00 0.00 72 1012.2
20260509070040 12 214 0.0 0.0 0.00 0.00 0.00 72 1012.3
20260509064536 12 216 0.0 0.0 0.00 0.00 0.00 73 1012.3
20260509063034 11 195 0.0 1.6 0.00 0.00 0.00 74 1012.5
20260509061540 11 243 0.0 0.0 0.00 0.00 0.00 75 1012.5
20260509060029 11 246 0.0 0.0 0.00 0.00 0.00 76 1012.6
20260509054524 10 231 0.0 1.6 0.00 0.00 0.00 82 1012.8
20260509053022 8 240 0.0 0.0 0.00 0.00 0.00 88 1012.8
20260509051528 8 240 0.0 1.6 0.00 0.00 0.00 88 1012.9
20260509050019 8 268 0.0 0.0 0.00 0.00 0.00 88 1012.9
20260509044513 8 269 0.0 0.0 0.00 0.00 0.00 88 1012.9
20260509043009 8 269 0.0 0.0 0.00 0.00 0.00 87 1012.9
20260509041504 7 269 0.0 0.0 0.00 0.00 0.00 88 1013.0
20260509034605 7 269 0.0 0.0 0.00 0.00 0.00 87 1013.0
20260509033059 8 269 0.0 0.0 0.00 0.00 0.00 87 1013.0
20260509031603 8 269 0.0 0.0 0.00 0.00 0.00 86 1013.2
20260509030058 8 269 0.0 1.6 0.00 0.00 0.00 87 1013.2
20260509024558 9 269 0.0 0.0 0.00 0.00 0.00 85 1013.3
20260509023102 9 269 0.0 0.0 0.00 0.00 0.00 82 1013.4
20260509021557 10 269 0.0 0.0 0.00 0.00 0.00 84 1013.2
20260509020058 10 269 0.0 0.0 0.00 0.00 0.00 85 1013.2
20260509014556 11 269 0.0 0.0 0.00 0.00 0.00 83 1013.2
20260509013114 12 269 0.0 0.0 0.00 0.00 0.00 80 1013.1
20260509011554 12 269 0.0 1.6 0.00 0.00 0.00 79 1013.2
20260509010055 13 269 0.0 4.8 0.00 0.00 0.00 75 1013.1
20260509004554 14 86 0.0 1.6 0.00 0.00 0.00 68 1013.1
20260509003051 16 87 0.0 0.0 0.00 0.00 0.00 59 1013.0
20260509001550 16 87 0.0 0.0 0.00 0.00 0.00 57 1012.9
20260509000050 17 87 0.0 0.0 0.00 0.00 0.00 55 1012.8
20260508234549 17 87 0.0 1.6 0.00 0.00 0.00 58 1012.7
20260508233049 18 87 0.0 0.0 0.00 0.00 0.00 50 1012.6
20260508231648 18 87 0.0 0.0 0.00 0.00 0.00 49 1012.6
20260508230056 19 87 0.0 0.0 0.00 0.00 0.00 47 1012.4